COSMOS 249 DEB, 3584

Orbit data source: Space-Track

COSMOS 249 DEB, 3584 is space debris in LEO originally from a launch on Sun, 20 Oct 1968 UTC launched from the Tyuratam Missile And Space Complex (TTMTR). Debris objects in space refer to the collection of defunct objects orbiting the Earth. Examples of debris include non-operational satellites, rocket bodies, and fragments generated from explosions, collisions, or faulty payload assembly.

Loading next visibility...
Identifier
3584, 1968-091S
Orbit
LEO
Country
Flag of CISCIS
Related business
Manufacturer
Unknown
Mission
Spacecraft
Bus & Motor
Unknown
Mass
Unknown
Launch date (UTC)
1968-10-20 (58 years ago)
Launch vehicle
Unknown
Launch site
Tyuratam Missile And Space Complex (TTMTR)
Object type
Payload
Rocket body
Debris
Shape & HBR
Unknown shape, 0.1 m
Radar Cross Section
Medium (>0.1 m² and <1 m²)

Expand to show TLE details & history
Last TLE update: 11 hours ago

TLE from 11 hours ago
0 COSMOS 249 DEB
1 03584U 68091S   26207.11328324  .00004665  00000-0  54721-3 0  9998
2 03584  62.2915 206.8856 0257939 229.7243 128.1029 14.65312533868600
Epoch: 2026-07-26T02:43Z
TLE epoch observation values (Epoch: 2026-07-26T02:43:07.671Z)
Latitude
-0.00002°
Longitude
-137.71225°
Altitude
792.966 km
Speed
7.397 km/s
True Right ascension
13h 47m 32s
True Declination
0° 00' 00"
Sunlit
Object was in daylight at epoch
Visualization orbit readout
Latitude
Unknown
Longitude
Unknown
Altitude
Unknown
Speed
Unknown
Apparent Right ascension
Unknown
Apparent Declination
Unknown
Sunlit
N/A
Visualization observer readout
Local Sidereal Time
03:28:09
Azimuth
Unknown
Elevation
Unknown
Doppler factor
Unknown
Orbital elements
Apogee altitude
856.906 km
Perigee altitude
493.051 km
Semi-major axis
7,053.116 km
Eccentricity
0.02579
Inclination
62.2915°
RAAN
206.8856°
Arg. of periapsis
229.7243°
True anomaly
130.38279°
Mean anomaly
128.1029°
Eccentric anomaly
129.2474°
Mean motion
3.66414 °/min
Orbital period
98.25 mins
BSTAR
0.00054721
Loading maneuver chart data...
Computing Atmospheric mass density...

Documentation

Showing up to 5 results
|